Regional Weather Roundup
Issued by NWS

Home | Current Version | Previous Version | Graphics & Text | Print | Product List | Glossary On
Versions: 1 2 3 4 5 6 7 8 9 10 11 12 13 14 15 16 17 18 19 20 21 22 23 24 25 26 27
000
ASUS43 KMPX 212210
RWRMN
WEATHER ROUNDUP FOR MINNESOTA
NATIONAL WEATHER SERVICE TWIN CITIES/CHANHASSEN MN
500 PM CDT SAT MAY 21 2022


NOTE: "FAIR" INDICATES FEW OR NO CLOUDS BELOW 12,000 FEET WITH NO
SIGNIFICANT WEATHER AND/OR OBSTRUCTIONS TO VISIBILITY. N/A MEANS
CURRENT SKY AND/OR WEATHER CONDITIONS ARE NOT AVAILABLE.

MNZ060>063-068>070-212300-
   Twin Cities Metro

CITY           SKY/WX    TMP DP  RH WIND       PRES   REMARKS
TWIN CITIES    CLOUDY    53  29  39 NW15G23   30.10S
ST PAUL        CLOUDY    54  30  40 W14       30.11R
CRYSTAL        PTSUNNY   54  30  40 W12G20    30.10R
BLAINE         CLOUDY    55  30  38 W9G16     30.09S
LAKEVILLE      CLOUDY    54  27  35 W13       30.10S
EDEN PRAIRIE   CLOUDY    53  30  41 NW12G17   30.09F
SOUTH ST PAUL  CLOUDY    54  28  37 W9        30.10S
LAKE ELMO      CLOUDY    52  32  46 NW9       30.10S
$$
MNZ001>005-007-008-013>017-022>024-027-028-212300-
   Northwest Minnesota

CITY           SKY/WX    TMP DP  RH WIND       PRES   REMARKS
BEMIDJI        CLOUDY    44  28  53 NW10      30.12S
HALLOCK        CLOUDY    46  34  61 N13G20    30.14S
ROSEAU           N/A     46  34  61 NW9       30.12S
WARROAD        CLOUDY    45  32  61 NW8       30.12R
THIEF RVR FALL LGT RAIN  44  36  73 W13       30.14S
CROOKSTON      PTSUNNY   45 N/A N/A NW5       30.15F
FOSSTON          N/A     43  28  56 NW5       30.14S
DETROIT LAKES  CLOUDY    43  28  56 NW10G18   30.14S
MOORHEAD       MOSUNNY   46  30  53 NW9       30.16F
PARK RAPIDS    CLOUDY    45  28  51 NW15      30.12S
MAHNOMEN       CLOUDY    43  30  60 W6        30.14S
$$
MNZ006-009>011-018-025>026-212300-
   North Central Minnesota

CITY           SKY/WX    TMP DP  RH WIND       PRES   REMARKS
BAUDETTE       CLOUDY    47  28  47 NW8       30.10F
FLAG ISLAND    CLOUDY    39  32  75 NW15      30.11R
INTL FALLS     CLOUDY    46  29  51 NW12      30.08R
WASKISH        CLOUDY    46  30  53 W12       30.11S
BIG FORK       PTSUNNY   46  36  66 NW10G17   30.14S
LONGVILLE      CLOUDY    45  28  53 W7        30.11F
GRAND RAPIDS   CLOUDY    43  31  62 W8        30.12R
CRANE LAKE     PTSUNNY   45  28  53 W7        30.09F
COOK           DRIZZLE   45  30  57 W12       30.07S
WALKER         CLOUDY    43  28  56 W6        30.11S
$$
MNZ012-019>021-037-212300-
   Northeast Minnesota

CITY           SKY/WX    TMP DP  RH WIND       PRES   REMARKS
DULUTH         CLOUDY    46  32  58 W14       30.06S
ELY            CLOUDY    45  27  49 W3        30.06S
HIBBING        CLOUDY    44  32  62 W9        30.08R
DULUTH HARBOR  CLOUDY    52  32  46 NW9       30.07S
TWO HARBORS    PTSUNNY   46  34  61 NW7       30.06R
GRAND MARAIS     N/A     43  33  68 W7        30.08S
G MARAIS ARPRT   N/A     43  34  70 S3        30.04S
$$
MNZ029>031-032-039>041-046>048-054>057-064-212300-
   West Central Minnesota

CITY           SKY/WX    TMP DP  RH WIND       PRES   REMARKS
FERGUS FALLS   MOSUNNY   48  30  49 NW12      30.12S
ALEXANDRIA     PTSUNNY   48  27  44 NW14G23   30.14S
ELBOW LAKE     PTSUNNY   47  30  52 NW15G23   30.16R
WADENA         CLOUDY    43  27  52 NW7       30.14R
GLENWOOD       MOSUNNY   48  28  46 NW15      30.14R
APPLETON       CLOUDY    52  28  40 NW9       30.15S
BENSON         PTSUNNY   50  30  46 N10       30.16S
ORTONVILLE       N/A     48  32  53 NW9       30.15S
MADISON        CLOUDY    52  36  54 N9        30.17S
WILLMAR        CLOUDY    52  30  43 NW14      30.17R
$$
MNZ033>034-036-042>043-049>051-058-059-212300-
   Central Minnesota

CITY           SKY/WX    TMP DP  RH WIND       PRES   REMARKS
ST CLOUD       PTSUNNY   52  29  41 NW15G21   30.11R
SAUK CENTRE    MOCLDY    48  29  46 NW14G22   30.12S
PAYNESVILLE    CLOUDY    52  30  43 NW13      30.12S
AITKIN         CLOUDY    46  27  46 CALM      30.11S
PINE RIVER       N/A     45  30  57 NW8       30.15S
BRAINERD       CLOUDY    48  27  44 NW10G20   30.12S
STAPLES          N/A     46  28  49 NW10      30.13S
LONG PRAIRIE   FAIR      50  28  43 NW12G21   30.13S
LITTLE FALLS   PTSUNNY   48  28  46 NW10G20   30.13R
CAMP RIPLEY    CLOUDY    49  28  44 N13       30.11S
LITCHFIELD     CLOUDY    54  28  37 NW13G20   30.13R
BUFFALO        PTSUNNY   54  28  37 NW12      30.11R
MAPLE LAKE     PTSUNNY   54  27  35 NW8G17    30.11S
HUTCHINSON     CLOUDY    53  32  44 W12G20    30.13S
$$
MNZ037-044-045-052-053-212300-
   East Central Minnesota

CITY           SKY/WX    TMP DP  RH WIND       PRES   REMARKS
PRINCETON      PTSUNNY   54  30  40 NW8G16    30.11S
MORA           CLOUDY    50  32  50 NW9       30.12R
RUSH CITY      CLOUDY    51  29  43 NW12      30.10R
MOOSE LAKE     CLOUDY    50  28  43 W8        30.09S
HINCKLEY       MOCLDY    52  32  46 NW8       30.09S
CLOQUET          N/A     46  28  49 W6        30.07S
MCGREGOR       CLOUDY    45  28  53 W8        30.10S
$$
MNZ071>073-080-081-089-090-097-098-212300-
   Southwest Minnesota

CITY           SKY/WX    TMP DP  RH WIND       PRES   REMARKS
MONTEVIDEO     CLOUDY    48  28  46 MISG      30.16S
GRANITE FALLS  CLOUDY    51  37  60 NW12      30.17S
CANBY          CLOUDY    46  37  71 N6        30.18R
MARSHALL       LGT RAIN  45  40  82 N10       30.17R
REDWOOD FALLS  CLOUDY    50  34  54 NW9       30.14S
OLIVIA         CLOUDY    48  32  53 NW12      30.14S
PIPESTONE        N/A     46  36  66 NW6       30.15S
WINDOM         MOSUNNY   48  36  61 NW10      30.14R
WORTHINGTON    CLOUDY    49  34  56 NW15      30.16S
JACKSON        CLOUDY    48  32  53 W13       30.15R
TRACY          CLOUDY    48  37  65 CALM      30.16S
SLAYTON        CLOUDY    49  33  55 W14       30.16S
$$
MNZ065>067-074>077-082>085-091>093-212300-
   South Central Minnesota

CITY           SKY/WX    TMP DP  RH WIND       PRES   REMARKS
MANKATO        CLOUDY    53  31  42 NW10      30.13S
NEW ULM        CLOUDY    52  30  43 NW12      30.13S
ST JAMES       CLOUDY    52  28  40 W12       30.13S
FAIRMONT       CLOUDY    53  32  44 NW15      30.13F
GLENCOE        CLOUDY    54  29  38 W14       30.11S
FARIBAULT      CLOUDY    54  32  43 NW9       30.11S
OWATONNA         N/A     52  34  50 NW13      30.11R
WASECA         CLOUDY    52  32  46 NW14G20   30.13S
ALBERT LEA     CLOUDY    54  34  47 NW8       30.11S
$$
MNZ078>079-086>088-094>096-212300-
   Southeast Minnesota

CITY           SKY/WX    TMP DP  RH WIND       PRES   REMARKS
ROCHESTER      CLOUDY    53  35  50 NW15G26   30.09S
RED WING       CLOUDY    54  30  40 NW6       30.08S
STANTON        CLOUDY    54  33  44 CALM      30.10R
DODGE CENTER     N/A     52  32  46 NW12G17   30.10R
AUSTIN         CLOUDY    54  36  50 NW9       30.11R
PRESTON        PTSUNNY   54  34  46 NW12      30.09R
$$
ABBREVIATIONS USED IN REMARKS
   TC - TEMPERATURES IN CELSIUS
  WCI - WIND CHILL INDEX
   HX - HEAT INDEX
  VSB - VISIBILITY
$$



USA.gov is the U.S. government's official web portal to all federal, state and local government web resources and services.